This demonstration page uses our WeatherBlox Daily Observations layout. Learn more.

Left ArrowRight Arrow

Hourly Observations for August 22, 2020

Temp ( °F °C ) Dew Point ( °F °C ) Humidity (%) Winds ( mph kmh ) Pressure ( in mb ) Visibility ( mi km ) Precip ( " mm )
12:54 am 00:54 Clear 72 22.2 64 17.8 76 76 S 6 9 29.85 1011 10 16.0934 0 0
1:54 am 01:54 Clear 72 22.2 63 17.2 73 73 SSW 7 11 29.84 1011 10 16.0934 0 0
2:54 am 02:54 Clear 70 21.1 63 17.2 79 79 SSW 5 7 29.84 1011 10 16.0934 0 0
3:54 am 03:54 Clear 70 21.1 63 17.2 79 79 SSW 6 9 29.84 1010 10 16.0934 0 0
4:54 am 04:54 Clear 68 20 62 16.7 81 81 SSE 7 11 29.84 1011 10 16.0934 0 0
5:54 am 05:54 Clear 66 18.9 61 16.1 84 84 S 5 7 29.85 1011 10 16.0934 0 0
6:54 am 06:54 Sunny 66 18.9 61 16.1 84 84 S 6 9 29.86 1011 10 16.0934 0 0
7:54 am 07:54 Sunny 68 20 63 17.2 84 84 S 7 11 29.87 1012 9 14.48406 0 0
8:54 am 08:54 Sunny 73 22.8 64 17.8 74 74 SSW 8 13 29.87 1012 9 14.48406 0 0
9:54 am 09:54 Sunny 78 25.6 64 17.8 62 62 SW 12 19 29.87 1012 9 14.48406 0 0
10:54 am 10:54 Sunny 82 27.8 64 17.8 55 55 SSW 12 19 29.87 1012 9 14.48406 0 0
11:54 am 11:54 Sunny 84 28.9 65 18.3 53 53 SSW 12 19 29.87 1011 9 14.48406 0 0
12:54 pm 12:54 Sunny 86 30 66 18.9 51 51 SSW 12 19 29.85 1011 9 14.48406 0 0
1:54 pm 13:54 Sunny 88 31.1 66 18.9 48 48 S 14 22 29.85 1011 9 14.48406 0 0
2:54 pm 14:54 Sunny 90 32.2 67 19.4 47 47 SSW 12 19 29.84 1011 9 14.48406 0 0
3:54 pm 15:54 Sunny 91 32.8 66 18.9 44 44 SSW 12 19 29.83 1010 9 14.48406 0 0
4:54 pm 16:54 Sunny 90 32.2 66 18.9 45 45 SSW 15 24 29.82 1010 9 14.48406 0 0
5:54 pm 17:54 Sunny 90 32.2 66 18.9 45 45 SSW 13 20 29.83 1010 9 14.48406 0 0
6:54 pm 18:54 Sunny 88 31.1 66 18.9 48 48 SSW 9 15 29.83 1010 9 14.48406 0 0
7:54 pm 19:54 Sunny 83 28.3 68 20 61 61 SSW 6 9 29.84 1011 9 14.48406 0 0
8:54 pm 20:54 Clear 81 27.2 68 20 65 65 SSW 3 6 29.85 1011 10 16.0934 0 0
9:54 pm 21:54 Clear 77 25 68 20 74 74 SSW 6 9 29.86 1011 10 16.0934 0 0
10:54 pm 22:54 Clear 78 25.6 69 20.6 74 74 Calm 29.87 1012 9 14.48406 0 0
11:54 pm 23:54 Clear 77 25 67 19.4 71 71 Calm 29.87 1011 10 16.0934 0 0

Powered by AerisWeather